Retour au catalogue

EKVADOR-UTE-YUZGU

ActifScienceSSO
NORAD 42832·PAYLOAD·🇷🇺 Russia
Ce nom de satellite n'a pas encore été confirmé par des sources officielles.

Lancé Jul 14, 2017 depuis Baikonur Cosmodrome

Loading…

Prochains Passages (prochaines 24 heures)

TLE

FraisSource: Space-Track

Époque: Sep 14, 2026, 10:03 UTC

1 42832U 17042H   26257.41898293  .00002899  00000-0  18843-3 0  9994
2 42832  97.4281  54.9762 0010360 158.2622 201.9048 15.08727085500395

Suivez EKVADOR-UTE-YUZGU en temps réel avec AllMySat

Download on the App Store